Regional Weather Roundup
Issued by NWS

Home | Current Version | Previous Version | Text Only | Print | Product List | Glossary On
Versions: 1 2 3 4 5 6 7 8 9 10 11 12 13 14 15 16 17 18 19 20 21 22 23 24 25 26 27 28 29 30 31 32 33 34 35 36 37 38 39 40 41 42 43 44 45 46 47 48 49 50
000
ASUS43 KTOP 242208
RWRKS

WEATHER ROUNDUP FOR KANSAS
NATIONAL WEATHER SERVICE GOODLAND KS
500 PM CDT FRI OCT 24 2014

NOTE:  "FAIR" INDICATES FEW OR NO CLOUDS BELOW 12,000 FEET WITH NO
SIGNIFICANT WEATHER AND/OR OBSTRUCTIONS TO VISIBILITY.

KSZ001>006-013>018-027>032-041>047-242300-
NORTHWEST KANSAS

CITY           SKY/WX    TMP DP  RH WIND       PRES   REMARKS
GOODLAND       SUNNY     87  23   9 VRB3      30.06R
HAYS           MOSUNNY   88  48  25 W6        29.97S
HILL CITY      SUNNY     88  34  14 N3        29.98S
RUSSELL        SUNNY     86  51  29 W10       29.96S
$$

KSZ061>065-074>080-084>089-242300-
SOUTHWEST KANSAS

CITY           SKY/WX    TMP DP  RH WIND       PRES   REMARKS
DODGE CITY     PTSUNNY   84  45  25 SW9       30.01F
ELKHART          N/A     88  38  17 SW7         N/A
GARDEN CITY    MOSUNNY   86  42  21 SW9       30.02S
GREAT BEND     SUNNY     84  54  34 SW10      29.97S
LIBERAL        SUNNY     88  39  18 S6        30.04F
PRATT          SUNNY     81  52  36 SW9       30.01S
$$

KSZ066>073-081>083-090>101-242300-
SOUTHEAST KANSAS

CITY           SKY/WX    TMP DP  RH WIND       PRES   REMARKS
CHANUTE        PTSUNNY   75  62  64 S12       30.01S
COFFEYVILLE    CLOUDY    74  62  66 S8        30.02S
HUTCHINSON     SUNNY     84  60  44 S13       29.98S
MEDICINE LODGE   N/A     83  61  47 S12       29.99R
NEWTON         MOSUNNY   81  59  47 SW15      30.01S
PARSONS        PTSUNNY   75  62  64 S7        30.03S
WICHITA INTL   MOSUNNY   82  60  47 S15       29.98F
WICHITA JABRA  SUNNY     81  60  48 S15       29.99S
WICHITA MCCONL SUNNY     82  60  48 S14       30.00S
WINFIELD       SUNNY     81  63  54 SW15      30.01S
$$

KSZ007>012-019>026-033>040-048>060-102>105-242300-
NORTHEAST KANSAS

CITY           SKY/WX    TMP DP  RH WIND       PRES   REMARKS
CONCORDIA      SUNNY     82  59  45 SW9       29.93S
EMPORIA        MOSUNNY   78  60  53 SW15      29.97F
LAWRENCE       PTSUNNY   75  63  66 S8        29.94F
MANHATTAN      PTSUNNY   82  64  54 SW16G23   29.91F
MARYSVILLE     MOSUNNY   79  63  57 W8        29.92R
OLATHE IND     PTSUNNY   75  63  66 SW15      29.97F
OLATHE EXE     PTSUNNY   75  62  64 SW9       29.96F
SALINA         SUNNY     84  62  47 S13       29.95S
TOPEKA BILLARD PTSUNNY   79  63  57 S12       29.93F
TOPEKA FORBES  PTSUNNY   78  64  61 S9        29.94F
$$



USA.gov is the U.S. government's official web portal to all federal, state and local government web resources and services.